Tracking 17138 objects as of 2-July-2015
HD Live streaming from Space Station

TDRS 3

Track TDRS 3 now!
TDRS 3 is classified as:


NORAD ID: 19548
Int'l Code: 1988-091B
Perigee: 35,643.3 km
Apogee: 35,940.3 km
Inclination: 14.6 °
Period: 1,436.0 minutes
Semi major axis: 42162 km
RCS: 38.9601 m2 (large)
Launch date: September 29, 1988
Source: United States (US)

Backup; still partially operational.
Your satellite tracking list
Your tracking list is empty





NASA's NSSDC Master Catalog

Two Line Element Set (TLE):
1 19548U 88091B   15180.18294758 -.00000301  00000-0  00000+0 0  9996
2 19548 014.6367 015.8826 0035223 305.0692 319.6214 01.00278607 85196

Source of the keplerian elements: AFSPC

N2YO: 279